HK6RM-20 Weather Reports


time (UTC)temp
F
wind
direction
speed
knots
gust
knots
rain 1hr
in
rain 24hr
in
rain mn
in
humidity
%
barometer
mb
20260503072406 68 67 0.9 0.9 0.00 0.00 0.00 98 1015.0
20260503071106 69 67 0.9 0.9 0.00 0.00 0.00 98 1015.0
20260503053959 68 302 0.9 0.9 0.00 0.00 0.00 98 1016.0
20260503052658 69 328 0.0 1.7 0.00 0.00 0.00 98 1017.0
20260503051357 70 328 0.0 1.7 0.00 0.00 0.00 98 1017.0
20260503050052 71 328 0.0 1.7 0.00 0.00 0.00 98 1017.0
20260503044751 72 328 0.0 1.7 0.00 0.00 0.00 98 1017.0
20260503043451 73 328 0.0 1.7 0.00 0.00 0.00 98 1017.0
20260503042150 66 32 0.0 0.9 0.00 0.00 0.00 96 1017.0
20260503040850 67 32 0.0 0.9 0.00 0.00 0.00 96 1017.0
20260503035548 68 32 0.0 0.9 0.00 0.00 0.00 96 1017.0
20260503034247 69 32 0.0 0.9 0.00 0.00 0.00 96 1017.0
20260503032945 70 56 0.0 0.0 0.00 0.00 0.00 96 1017.0
20260503031645 71 56 0.0 0.0 0.00 0.00 0.00 96 1017.0
20260503030344 72 56 0.0 0.0 0.00 0.00 0.00 96 1016.0
20260503025044 73 56 0.0 0.0 0.00 0.00 0.00 96 1016.0
20260503023743 74 56 0.0 0.0 0.00 0.00 0.00 96 1016.0
20260503022443 75 116 0.0 0.9 0.00 0.00 0.00 96 1016.0
20260503021142 67 151 0.9 3.5 0.00 0.00 0.00 88 1016.0
20260503015842 68 151 0.9 3.5 0.00 0.00 0.00 88 1015.0
20260503014540 69 151 0.9 3.5 0.00 0.00 0.00 88 1015.0
20260503013239 70 151 0.9 3.5 0.00 0.00 0.00 88 1015.0
20260503011938 71 151 0.9 3.5 0.00 0.00 0.00 88 1015.0
20260503010637 72 151 0.9 3.5 0.00 0.00 0.00 88 1014.0
20260503005336 73 151 0.9 3.5 0.00 0.00 0.00 88 1014.0
20260503004035 74 151 1.7 3.5 0.00 0.00 0.00 88 1014.0
20260503002733 75 180 0.0 0.9 0.00 0.00 0.00 88 1014.0
20260503001431 76 180 0.0 0.9 0.00 0.00 0.00 88 1014.0
20260503000131 67 160 0.9 0.9 0.00 0.00 0.00 87 1013.0
20260502234830 68 160 0.9 0.9 0.00 0.00 0.00 87 1013.0
20260502233530 69 160 0.9 0.9 0.00 0.00 0.00 87 1014.0
20260502232229 70 266 0.0 0.0 0.00 0.00 0.00 87 1014.0
20260502230927 71 266 0.0 0.0 0.00 0.00 0.00 87 1013.0
20260502225627 72 266 0.0 0.0 0.00 0.00 0.00 87 1013.0
20260502224326 73 266 0.0 0.0 0.00 0.00 0.00 87 1013.0
20260502223026 74 266 0.0 0.0 0.00 0.00 0.00 87 1012.0
20260502221725 75 242 0.0 0.9 0.00 0.00 0.00 87 1012.0
20260502220424 76 242 0.0 0.9 0.00 0.00 0.00 87 1012.0
20260502215123 71 267 0.9 0.9 0.00 0.00 0.00 90 1011.0
20260502213822 72 267 0.9 0.9 0.00 0.00 0.00 90 1011.0
20260502212521 73 267 0.9 0.9 0.00 0.00 0.00 90 1011.0
20260502211219 74 267 0.9 1.7 0.00 0.00 0.00 90 1011.0
20260502205918 72 267 0.9 0.9 0.00 0.00 0.00 88 1011.0
20260502204616 73 267 0.9 0.9 0.00 0.00 0.00 88 1011.0
20260502203314 74 267 0.9 1.7 0.00 0.00 0.00 88 1011.0
20260502202012 75 263 0.0 0.9 0.00 0.00 0.00 88 1011.0
20260502200710 73 263 0.0 0.9 0.00 0.00 0.00 79 1011.0
20260502195410 74 263 0.0 0.9 0.00 0.00 0.00 79 1011.0
20260502194109 75 263 0.0 0.9 0.00 0.00 0.00 79 1011.0
20260502192808 76 285 0.0 0.9 0.00 0.00 0.00 79 1012.0
20260502191506 77 285 0.0 0.9 0.00 0.00 0.00 79 1012.0
20260502190205 74 288 0.9 0.9 0.00 0.00 0.00 77 1012.0
20260502184904 75 288 0.9 0.9 0.00 0.00 0.00 77 1011.0
20260502183604 76 288 0.9 0.9 0.00 0.00 0.00 77 1011.0
20260502182304 77 288 0.9 0.9 0.00 0.00 0.00 77 1012.0
20260502181003 78 288 0.9 1.7 0.00 0.00 0.00 77 1013.0
20260502170457 77 316 0.9 1.7 0.00 0.00 0.00 79 1014.0
20260502163856 74 294 0.9 0.9 0.00 0.00 0.00 81 1014.0
20260502162555 75 294 0.9 0.9 0.00 0.00 0.00 81 1014.0
20260502161255 76 294 1.7 0.9 0.00 0.00 0.00 81 1014.0
20260502152047 76 296 1.7 0.9 0.00 0.00 0.00 81 1014.0
20260502150746 72 278 0.9 0.9 0.00 0.00 0.00 89 1014.0
20260502123128 68 96 0.9 0.9 0.00 0.00 0.00 96 1015.0
20260502121827 69 96 0.9 0.9 0.00 0.00 0.00 96 1015.0
20260502120527 70 96 0.9 0.9 0.00 0.00 0.00 96 1014.0
20260502115224 71 96 0.9 0.9 0.00 0.00 0.00 96 1014.0
20260502113923 72 96 0.9 0.9 0.00 0.00 0.00 96 1014.0
20260502112623 73 96 0.9 0.9 0.00 0.00 0.00 96 1014.0
20260502111322 74 96 0.9 0.9 0.00 0.00 0.00 96 1014.0
20260502110022 75 96 0.9 0.9 0.00 0.00 0.00 96 1014.0
20260502104722 65 96 0.9 0.9 0.00 0.00 0.00 94 1014.0
20260502103421 66 96 0.9 0.9 0.00 0.00 0.00 94 1014.0
20260502102120 67 61 0.0 0.9 0.00 0.00 0.00 94 1014.0
20260502100819 68 61 0.0 0.9 0.00 0.00 0.00 94 1014.0
20260502090316 73 85 0.0 0.9 0.00 0.00 0.00 94 1013.0